G. Sostero, E. Guido (RAS Observatory, Mayhill, NM, U.S.A.)
軌道要素
Epoch 2011 Mar. 20.0 TT = JDT 2455640.5
T 2011 Mar. 3.32892 TT MPC
q 2.4561914 (2000.0) P Q
n 0.13113541 Peri. 283.92042 +0.97090439 -0.19930138
a 3.8369787 Node 87.70031 +0.23642438 +0.88588326
e 0.3598632 Incl. 7.63495 -0.03805501 +0.41891505
P 7.52
From 307 observations 2003 Aug. 1-2012 Jan. 26, mean residual 0".6.